Dewpoint
19 18 17 17 16 15 15 14 12 12 11 10 11 10 8 7 7 8 8 7 9 7 9 10 13 10 26 47 50 51 54 58 59 59 59 59 58 58 57 58 59 60 60 61 61 61 62 63 63 64 64 64 64 64 65 64 65 65 65 65 65 66 66 65 65 65 64 64 64 63 63 63 62 63 64 64 63 63 64 64 64 65 64 64 63 63
19 20 19 18 17 16 16 14 14 11 11 9 11 9 7 7 6 7 7 8 9 15 12 12 10 10 14 47 51 52 55 56 58 59 58 58 58 58 58 58 59 60 61 61 61 61 62 63 63 63 63 64 63 64 64 64 64 65 65 64 65 66 65 65 65 65 64 64 64 63 62 62 63 63 63 62 63 63 64 64 65 64 63 63 63 63
18 19 20 18 20 18 16 14 12 12 11 9 10 12 10 8 8 6 7 7 10 7 8 9 8 8 18 49 51 52 52 55 58 58 58 58 58 58 58 58 59 59 59 60 61 61 62 63 63 64 63 63 64 63 64 64 64 64 64 65 65 65 65 65 65 65 64 64 64 63 62 63 63 63 63 63 64 64 63 63 62 62 62 62 62 62
19 19 19 17 20 17 15 13 11 11 13 13 12 10 10 11 8 7 10 10 9 10 12 13 8 14 48 50 51 52 52 52 56 58 58 58 58 58 58 58 59 59 59 59 60 61 62 63 63 63 63 63 63 63 63 64 63 64 64 64 65 65 65 65 65 65 65 64 64 64 63 63 62 62 64 63 63 63 62 61 61 61 61 61 61 61
19 19 17 17 19 18 13 12 12 13 12 19 10 9 8 8 8 7 9 12 11 9 12 13 17 16 45 48 49 51 53 53 53 54 57 58 59 59 59 59 59 59 59 59 60 61 61 62 63 63 63 63 63 63 63 63 63 63 64 65 65 65 65 65 66 65 65 64 63 63 63 64 63 63 63 63 61 61 61 60 60 60 61 62 62 62
18 17 17 17 17 18 16 10 10 12 12 12 13 8 8 9 8 9 10 9 18 14 15 5 6 8 27 48 48 50 51 52 53 54 56 57 57 58 58 58 59 59 60 60 60 61 61 62 62 63 63 63 63 63 63 63 63 64 65 65 65 65 65 65 65 65 65 64 63 62 62 61 61 61 62 61 60 60 59 59 60 61 61 62 61 61
17 20 17 17 16 17 18 14 9 11 12 12 11 9 9 9 9 8 7 10 9 6 11 14 5 12 31 44 48 50 51 52 54 55 55 56 57 57 58 58 58 59 59 60 60 61 61 62 62 62 63 63 62 62 63 63 64 65 65 65 65 65 65 65 65 65 65 63 63 62 62 62 61 61 60 60 60 60 59 60 60 61 61 61 61 60
17 16 16 17 16 16 17 17 13 9 10 9 10 9 9 8 8 9 7 8 13 19 19 12 7 7 23 39 46 50 51 52 52 54 55 56 56 57 57 58 58 59 59 59 60 61 62 62 62 62 62 62 62 63 64 64 64 65 65 65 65 65 65 65 64 64 64 63 62 62 61 62 62 62 61 61 60 60 61 60 60 61 61 61 60 60
18 16 15 16 17 15 16 17 10 8 9 8 11 9 8 8 8 8 8 11 13 11 7 14 27 13 23 37 51 52 50 50 51 53 54 55 56 56 57 58 58 59 59 59 60 60 61 61 62 62 62 62 63 64 64 64 64 65 65 65 64 65 65 64 64 64 63 63 62 62 62 62 61 62 62 62 62 60 61 60 60 60 60 60 59 59
16 16 15 15 16 15 16 17 9 7 7 7 9 12 13 9 10 8 8 6 12 8 8 8 18 10 17 43 49 51 50 50 51 53 54 55 56 56 56 57 58 59 59 59 60 61 61 62 62 62 62 63 64 64 64 64 65 65 65 64 64 64 65 64 64 63 63 63 62 62 62 62 62 62 62 61 60 60 60 60 59 59 59 59 58 58
15 23 21 14 13 15 16 15 10 7 7 9 7 8 7 8 10 18 13 10 12 5 9 8 15 13 15 41 48 48 49 50 51 52 53 55 56 56 56 57 58 59 59 59 60 61 62 62 62 62 62 63 64 64 65 65 65 65 65 65 64 64 64 64 63 63 62 62 62 62 62 62 62 62 61 60 59 60 59 59 59 58 58 58 57 57
14 15 18 17 19 15 16 14 11 9 8 7 7 6 6 8 9 10 12 17 4 7 11 10 9 20 11 26 47 50 50 50 51 51 53 54 55 56 56 57 58 59 59 60 61 61 61 62 62 62 62 63 63 64 65 65 65 65 65 65 64 64 65 64 63 62 62 61 61 61 62 62 62 61 60 59 59 59 59 58 58 58 58 57 57 56
13 13 15 16 26 14 14 14 11 10 8 6 8 8 5 12 6 4 6 5 6 5 11 13 13 12 13 23 42 48 50 51 51 52 53 53 54 56 56 57 58 59 59 60 60 61 61 61 61 62 62 63 63 64 65 65 65 65 65 65 64 64 65 64 63 62 62 61 61 61 62 62 62 61 60 59 59 59 59 58 57 57 57 56 56 55
14 14 15 14 16 18 13 12 10 10 8 6 6 9 6 4 3 1 7 9 12 15 14 16 16 9 16 15 28 44 48 51 51 51 53 54 54 55 56 57 58 59 60 60 61 61 61 61 61 61 61 62 63 64 65 65 65 65 65 65 64 64 64 63 62 61 61 61 61 61 61 62 62 61 60 60 59 59 59 58 57 57 56 56 55 55
12 12 12 14 12 14 13 12 11 11 9 6 8 6 11 12 7 -1 10 2 5 8 12 16 9 11 8 12 22 42 47 50 51 52 54 54 55 56 57 57 58 58 60 61 61 61 61 61 61 61 62 62 63 64 65 65 65 65 65 65 64 64 64 63 62 61 61 60 60 61 61 61 61 60 59 60 60 59 58 57 57 57 56 56 55 55
12 14 16 14 15 13 11 12 10 9 8 7 8 9 9 7 21 6 17 12 12 8 7 10 11 16 11 31 47 46 50 51 53 54 54 54 56 56 56 57 57 58 59 61 61 61 61 61 61 62 63 63 63 63 65 65 65 65 65 65 64 63 63 62 61 61 60 60 60 60 60 60 60 60 59 59 59 59 58 57 57 57 56 56 55 55
12 14 14 13 13 11 11 11 10 9 9 11 6 7 7 14 11 11 11 21 15 11 10 16 13 15 23 25 45 49 50 51 53 54 54 54 56 56 56 57 57 58 59 60 61 60 60 60 61 63 63 63 63 63 64 65 65 65 65 64 63 62 62 61 60 60 60 60 60 59 59 59 59 59 59 59 58 57 57 57 57 57 57 56 55 56
14 17 21 13 12 10 10 10 10 9 15 7 7 7 11 20 20 13 8 14 11 10 13 15 9 8 13 18 41 48 49 51 52 53 53 54 55 56 56 57 57 57 58 60 61 61 61 61 61 63 63 63 63 63 64 65 65 65 64 64 62 61 61 61 61 60 60 59 59 59 58 58 58 58 58 58 57 57 57 57 57 57 56 55 55 55
18 10 12 12 12 10 9 9 8 8 11 7 7 9 6 11 7 16 17 7 5 3 4 11 13 15 13 18 42 44 48 50 52 53 53 54 55 55 56 56 57 57 58 59 60 61 60 61 62 63 63 64 64 64 64 65 65 64 64 63 62 62 61 61 60 60 59 59 59 58 58 58 58 58 58 57 57 57 57 56 56 56 55 55 54 56
24 14 13 12 12 9 8 7 10 7 8 11 10 5 12 15 18 10 14 17 15 7 5 9 10 11 18 21 43 45 48 50 52 52 53 54 54 55 55 56 57 57 57 59 60 61 61 61 62 63 63 64 64 64 64 64 64 63 63 63 62 62 61 60 59 59 58 58 58 58 58 58 58 58 57 57 57 56 56 56 56 55 54 54 55 54
19 23 12 10 11 7 7 9 8 8 8 5 7 7 9 15 15 13 19 11 9 10 9 9 6 15 22 27 44 45 49 51 51 52 53 53 54 55 55 56 56 57 57 59 60 61 61 61 62 63 63 64 64 64 64 64 63 63 63 62 62 61 60 59 58 58 58 58 57 57 57 57 57 57 57 57 56 56 56 55 55 54 54 54 53 54
15 18 19 12 8 8 8 8 8 8 8 6 8 11 9 8 8 5 12 16 18 12 7 6 10 18 23 36 44 45 49 51 52 52 52 53 54 54 54 55 56 57 57 59 60 61 61 61 62 63 63 64 64 64 63 63 63 63 62 62 61 60 59 58 58 58 58 57 57 57 57 57 57 56 56 56 55 55 55 55 54 53 52 52 51 53
23 27 24 13 9 8 8 9 11 9 7 6 5 8 8 12 15 11 8 12 13 18 18 18 10 15 30 34 41 46 50 51 52 52 52 53 54 54 54 55 56 57 57 59 60 61 61 62 62 63 63 63 63 63 63 63 63 62 62 61 60 60 59 58 58 58 57 57 57 56 56 56 56 56 55 55 55 54 54 54 53 53 52 52 52 52
24 17 17 14 9 12 11 10 11 10 6 4 5 10 7 10 16 16 18 20 13 15 9 8 6 18 29 39 42 45 49 50 51 52 52 52 53 54 54 55 56 56 57 60 61 61 61 62 62 62 62 63 63 63 63 62 62 62 61 61 60 59 58 58 58 57 57 56 56 56 56 56 55 55 54 54 54 54 53 52 52 52 51 51 50 49
18 25 19 12 8 9 14 9 9 9 7 13 13 15 7 11 14 25 24 20 10 17 17 13 6 12 29 40 42 43 48 49 50 50 52 52 52 53 54 55 56 56 58 60 60 61 61 61 61 62 62 62 63 62 62 62 62 61 60 60 59 58 58 57 57 57 56 56 55 55 55 55 55 54 53 53 53 53 52 51 51 51 49 49 48 47
20 27 20 14 10 8 8 9 10 11 8 15 19 8 8 8 13 15 8 13 8 18 15 13 13 19 26 41 40 42 47 48 49 50 51 52 52 53 54 55 55 56 58 59 60 60 60 61 61 62 62 62 62 62 62 62 61 60 60 59 59 58 57 57 57 56 56 55 55 55 55 55 54 53 53 52 52 52 51 51 50 49 49 47 46 46
26 33 25 21 14 12 15 15 16 17 11 7 8 7 8 10 13 19 21 15 14 19 15 20 23 28 35 39 40 43 48 48 49 51 52 52 52 53 53 55 55 56 58 59 60 60 60 60 61 61 62 62 62 62 62 61 60 60 59 59 58 57 57 57 56 56 55 55 55 55 54 54 54 53 53 52 52 51 50 49 49 48 47 47 45 45
26 22 24 26 18 14 19 15 17 11 11 12 10 11 12 15 19 18 14 12 21 16 11 25 31 31 32 38 41 44 47 48 50 51 52 52 53 54 54 54 54 56 58 60 60 60 60 60 61 61 61 61 61 62 61 61 60 59 58 58 57 57 57 56 56 55 55 55 54 54 54 54 54 53 53 53 52 50 49 48 48 47 47 46 44 44
27 21 25 24 21 18 20 14 14 9 10 12 13 16 15 19 18 15 17 25 22 10 16 24 31 33 34 40 43 44 47 48 50 51 52 53 54 54 54 55 55 57 58 59 59 59 60 60 60 61 61 61 61 61 61 60 59 59 58 57 57 57 56 56 55 55 55 54 54 54 54 54 53 53 53 52 51 49 48 48 47 46 45 45 44 44
28 25 28 27 26 30 26 15 14 9 14 9 14 17 18 18 19 18 21 27 20 18 25 30 33 34 36 40 43 44 46 47 50 52 54 54 54 54 55 55 56 57 58 58 58 59 60 60 60 60 61 61 61 60 60 59 58 58 57 57 56 56 56 56 55 55 54 54 53 53 53 53 53 53 52 51 49 49 48 47 46 45 44 43 43 42
26 27 35 32 25 26 30 29 17 11 13 14 19 23 21 20 21 25 27 29 27 28 33 33 33 32 36 41 46 48 49 51 51 52 53 54 54 54 55 56 57 57 57 57 58 58 59 60 60 60 60 60 60 60 59 59 58 57 57 56 56 56 56 55 55 54 54 53 53 54 53 53 53 52 51 50 49 48 47 46 45 44 43 43 42 42
30 26 33 30 23 21 29 27 23 20 18 16 19 22 22 20 17 19 17 27 22 24 31 32 30 30 36 47 47 48 50 50 50 51 52 53 54 55 56 57 57 57 56 57 57 58 58 59 60 60 60 60 60 60 59 58 57 57 56 56 55 55 55 55 55 54 54 54 54 53 53 52 52 51 50 49 48 47 46 45 44 43 43 42 42 41
28 23 19 21 22 17 27 29 21 19 15 10 11 19 23 26 25 26 26 30 29 31 29 28 29 33 40 46 47 47 48 48 49 51 52 52 54 55 56 57 57 56 56 57 57 57 58 59 59 60 60 60 60 59 59 58 57 56 56 55 55 55 55 54 54 54 54 54 53 53 52 52 51 51 50 48 47 46 45 44 43 43 42 41 41 40
30 27 22 28 23 19 27 25 22 14 6 13 24 30 29 21 22 18 18 25 24 33 29 27 28 36 46 47 48 48 48 50 51 52 54 55 55 55 57 58 57 56 57 57 57 57 57 58 59 60 60 60 60 59 58 57 57 56 56 55 55 54 54 54 54 54 54 53 53 52 52 52 51 50 49 48 46 45 44 43 43 43 42 41 40 39
27 29 21 28 27 20 23 23 17 7 13 24 32 36 37 33 25 24 26 32 30 33 36 39 43 45 48 49 49 50 50 50 50 52 53 53 55 56 57 57 56 56 56 57 56 56 56 56 57 59 60 60 60 59 57 56 56 55 55 54 54 54 54 54 53 53 53 53 53 52 52 51 51 50 48 47 46 45 44 44 43 42 41 40 39 38
24 24 23 26 23 23 23 19 10 12 24 31 35 39 40 33 30 25 20 24 34 35 37 34 43 45 47 46 47 48 49 50 51 50 51 53 54 56 57 58 57 56 56 56 56 56 55 55 56 58 59 59 59 58 56 55 55 55 54 54 54 54 54 53 53 53 53 52 52 52 51 51 50 49 48 46 45 44 43 43 42 41 41 40 39 39
31 28 29 23 25 21 19 20 18 25 27 29 34 37 36 25 23 22 15 17 34 39 39 38 41 45 45 46 47 49 50 50 48 50 51 53 53 55 57 58 58 57 56 56 56 56 55 56 56 58 59 58 58 56 56 55 55 54 54 53 53 53 53 53 53 52 52 53 52 52 51 51 50 48 47 46 45 44 43 42 42 41 41 39 39 38
30 22 22 28 19 27 24 20 20 20 19 27 33 37 40 40 39 33 24 23 34 38 42 41 44 45 46 48 48 49 50 49 47 49 50 52 53 54 54 55 57 57 57 56 54 53 54 54 55 57 58 57 56 55 55 54 54 53 53 53 53 53 53 53 53 53 52 52 52 51 51 50 49 48 47 45 44 43 42 42 41 41 40 39 38 37
28 29 27 26 21 25 24 22 18 15 19 28 31 37 40 42 41 36 23 20 31 38 42 43 44 45 48 49 49 49 48 44 45 48 51 52 52 54 54 54 57 58 58 57 56 54 54 55 56 57 57 56 55 54 54 54 54 53 53 53 53 53 53 53 52 52 52 52 52 51 51 50 49 47 46 45 43 43 42 41 41 41 40 39 38 38
25 23 25 24 20 22 22 22 18 19 26 33 36 37 40 41 35 19 12 19 32 36 42 42 45 46 48 50 51 49 46 42 44 45 49 53 53 53 54 54 55 56 56 56 56 55 55 55 55 55 55 55 54 53 53 53 53 53 53 52 52 52 52 52 52 52 52 52 52 51 51 50 49 48 46 44 43 42 41 41 40 39 38 38 38 37
19 20 26 18 19 21 24 20 19 25 32 36 39 43 44 38 25 19 15 25 31 37 42 43 45 47 49 50 50 47 45 41 43 45 52 53 52 52 53 55 56 57 57 56 56 52 55 55 55 55 55 54 53 53 53 53 53 53 52 52 52 52 52 52 52 52 52 52 52 51 50 49 48 47 46 44 43 42 41 40 38 38 38 38 37 37
18 20 17 20 19 15 15 23 18 22 31 38 44 44 43 28 18 15 24 32 40 42 43 44 47 48 49 51 49 46 46 43 44 50 53 53 53 52 53 54 54 54 55 55 53 54 55 55 55 54 54 53 52 53 53 53 53 52 52 51 51 51 52 52 52 53 52 52 51 50 49 48 48 47 46 44 42 41 39 38 38 38 38 37 36 36
18 18 14 16 17 17 15 16 17 23 29 43 44 37 38 27 28 33 38 44 44 45 44 43 48 49 50 48 45 46 46 49 50 52 52 52 52 52 52 53 54 55 55 55 54 55 55 55 54 54 52 52 52 52 52 53 52 52 51 51 50 51 51 52 52 52 52 52 51 50 49 48 48 47 45 43 42 39 38 38 38 38 37 36 35 35
25 20 18 19 22 16 15 16 19 30 38 43 39 33 40 38 41 41 44 43 45 45 45 44 44 47 49 49 47 47 48 49 50 51 51 51 52 52 52 53 54 54 55 55 56 55 54 54 54 53 52 52 52 52 52 52 51 51 50 48 49 50 51 51 51 51 51 50 50 49 49 48 48 47 45 43 40 39 38 38 38 37 36 35 34 34
32 26 26 25 34 25 26 30 34 39 42 43 44 43 42 45 45 44 45 44 44 45 46 45 45 45 47 49 48 50 50 50 50 51 52 51 52 52 53 53 54 54 54 55 55 54 54 54 52 52 51 52 52 52 52 52 51 49 49 49 50 50 51 51 51 51 50 49 48 48 48 48 47 45 43 42 40 38 38 38 37 36 35 35 34 33
37 38 36 40 39 41 42 42 42 41 42 43 44 45 45 46 47 46 47 46 46 46 46 45 46 47 48 50 51 49 50 51 50 49 50 50 51 51 51 52 51 52 53 54 54 53 54 54 52 51 50 50 51 51 50 50 50 49 49 50 50 50 50 50 50 49 48 48 48 48 48 47 46 45 42 41 40 39 38 37 37 36 35 34 33 32
37 38 36 38 40 35 36 39 41 42 43 43 45 45 46 46 46 46 46 46 45 46 47 47 46 48 49 49 50 51 49 50 50 50 50 51 51 51 51 52 52 53 54 54 54 52 53 53 52 51 50 49 50 50 50 50 50 50 49 50 50 50 50 50 49 48 48 48 48 48 47 46 44 43 41 40 40 39 38 37 36 35 35 33 32 31
33 38 38 35 32 29 34 39 41 42 43 44 44 44 45 45 45 45 45 45 45 45 46 46 47 48 48 49 49 51 50 49 51 51 51 51 51 51 51 51 51 52 52 52 52 53 53 52 51 51 50 50 50 50 50 50 49 49 50 50 51 50 50 49 48 48 48 48 48 47 46 44 39 40 41 40 39 38 37 37 36 35 33 32 32 31
36 39 32 35 36 38 39 41 41 42 43 44 44 44 44 45 44 43 44 44 45 45 46 48 47 46 48 48 50 51 51 48 49 51 51 51 51 51 51 51 51 51 51 52 52 52 52 52 51 51 50 50 50 50 50 49 49 50 50 50 50 50 49 49 47 48 48 47 47 46 44 43 42 41 40 39 39 38 37 36 36 35 33 32 32 31
37 34 37 38 36 34 36 39 41 38 37 41 43 44 44 44 44 44 44 45 45 45 46 47 49 49 49 49 51 51 51 50 49 50 51 51 51 50 50 50 50 50 50 51 51 51 51 51 51 50 50 50 50 50 50 49 49 49 50 50 49 49 48 46 46 46 45 44 44 43 42 42 42 40 39 38 37 36 35 33 35 34 33 32 35 33
39 38 33 33 36 33 37 40 40 40 41 41 42 43 43 44 44 44 44 45 46 46 45 46 47 48 49 49 50 50 51 51 50 49 50 50 50 50 51 51 50 50 50 50 50 50 51 51 50 50 49 49 49 49 49 49 49 49 49 48 48 47 46 45 44 44 44 42 41 40 41 41 40 39 38 37 36 36 34 33 32 33 34 34 36 34